Location: Campillo
(40.8621°N, 4.2488°W)
Time: 12:34:02
(UTC+00:00)

Cosmos 1538 Rocket - Pass Details

Date: 11 May 2021
Orbit: 752 x 792 km, 74.0° (Epoch: 13 June)

Event Time Altitude Azimuth Distance (km) Brightness Sun altitude
Rises 21:50:12 0° 339° (NNW) 3,293 8.6 -22.3°
Reaches altitude 10° 21:52:36 10° 339° (NNW) 2,356 7.6 -22.6°
Maximum altitude 21:57:58 81° 252° (WSW) 796 4.0 -23.2°
Enters shadow 21:59:07 56° 176° (S) 925 4.0 -23.3°
